This demonstration page uses our WeatherBlox Daily Observations layout. Learn more.

38.88101, -77.10428

Hourly Observations for January 18, 2020

Temp ( °F °C ) Dew Point ( °F °C ) Humidity (%) Winds ( mph kmh ) Pressure ( in mb ) Visibility ( mi km ) Precip ( " mm )
12:52 am 00:52 Mostly Cloudy 30 -1.1 11 -11.7 45 45 E 8 13 30.68 1039 10 16.0934 0 0
1:52 am 01:52 Cloudy 30 -1.1 11 -11.7 45 45 ENE 7 11 30.67 1039 10 16.0934 0 0
2:52 am 02:52 Cloudy 30 -1.1 10 -12.2 43 43 NE 3 6 30.66 1038 10 16.0934 0 0
3:52 am 03:52 Cloudy 30 -1.1 12 -11.1 47 47 E 3 6 30.64 1038 10 16.0934 0 0
4:52 am 04:52 Cloudy 30 -1.1 14 -10 51 51 SSE 3 6 30.64 1038 10 16.0934 0 0
5:52 am 05:52 Cloudy 31 -0.6 15 -9.4 52 52 SE 8 13 30.59 1036 10 16.0934 0 0
6:29 am 06:29 Cloudy with Light Snow 30 -1.1 15 -9.4 54 54 SSE 14 22 30.59 1036 4 6.43736 0.001 0.001
6:42 am 06:42 Cloudy with Light Snow 28 -2.2 21 -6.1 75 75 S 13 20 30.6 1036 2.5 4.02335 0.001 0.001
6:45 am 06:45 Cloudy with Light Snow 28 -2.2 21 -6.1 75 75 S 12 19 30.6 1036 2 3.21868 0.001 0.001
6:47 am 06:47 Cloudy with Light Snow 27 -3 21 -6 80 80 S 10 17 30.61 1037 1.5 2.41401 0.001 0.001
6:52 am 06:52 Mostly Cloudy with Scattered Snow Showers 27 -2.8 22 -5.6 81 81 S 10 17 30.6 1036 1 1.60934 0.001 0.001
7:05 am 07:05 Cloudy with Light Snow 27 -2.8 23 -5 85 85 SSE 10 17 30.59 1036 4 6.43736 0.01 0.254
7:18 am 07:18 Cloudy 27 -2.8 22 -5.6 81 81 S 9 15 30.59 1036 8 12.87472 0.01 0.254
7:52 am 07:52 Cloudy 27 -2.8 21 -6.1 78 78 SSE 8 13 30.57 1035 10 16.0934 0.01 0.254
8:52 am 08:52 Cloudy 28 -2.2 21 -6.1 75 75 SE 9 15 30.55 1034 10 16.0934 0 0
9:52 am 09:52 Cloudy 29 -1.7 22 -5.6 75 75 S 12 19 30.51 1033 10 16.0934 0 0
10:52 am 10:52 Cloudy 31 -0.6 23 -5 72 72 S 13 20 30.47 1032 10 16.0934 0 0
11:23 am 11:23 Cloudy with Light Snow 32 0 24 -4.4 73 73 S 15 24 30.44 1031 5 8.0467 0.001 0.001
11:36 am 11:36 Cloudy with Light Wintry Mix 32 0 24 -4.4 73 73 S 14 22 30.42 1030 9 14.48406 0.001 0.001
11:52 am 11:52 Cloudy with Light Freezing Rain 32 0 25 -3.9 75 75 S 13 20 30.4 1029 10 16.0934 0.001 0.001
12:52 pm 12:52 Cloudy with Light Freezing Rain 32 0 26 -3.3 79 79 SSE 9 15 30.31 1026 10 16.0934 0.02 0.508
1:01 pm 13:01 Cloudy 33 0.6 26 -3.3 75 75 S 12 19 30.31 1027 10 16.0934 0.001 0.001
1:52 pm 13:52 Cloudy 33 0.6 26 -3.3 75 75 S 13 20 30.24 1024 10 16.0934 0.001 0.001
2:52 pm 14:52 Cloudy with Light Rain 34 1.1 27 -2.8 76 76 S 13 20 30.19 1022 10 16.0934 0.001 0.001
3:52 pm 15:52 Cloudy with Rain 34 1.1 28 -2.2 79 79 S 14 22 30.16 1022 5 8.0467 0.03 0.762
4:52 pm 16:52 Cloudy with Light Rain 33 0.6 30 -1.1 89 89 SSW 12 19 30.11 1020 4 6.43736 0.12 3.048
5:01 pm 17:01 Cloudy with Freezing Rain 33 0.6 30 -1.1 89 89 SSW 12 19 30.12 1020 3 4.82802 0.02 0.508
5:07 pm 17:07 Cloudy with Light Freezing Rain 33 0.6 31 -0.6 92 92 SSW 8 13 30.12 1020 3 4.82802 0.03 0.762
5:17 pm 17:17 Cloudy with Light Rain 33 0.6 31 -0.6 92 92 SSW 10 17 30.12 1020 4 6.43736 0.05 1.27
5:52 pm 17:52 Cloudy with Light Rain 34 1.1 32 0 92 92 S 15 24 30.07 1018 9 14.48406 0.07 1.778
5:57 pm 17:57 Cloudy with Light Rain 34 1.1 32 0 92 92 S 16 26 30.07 1018 9 14.48406 0.001 0.001
6:33 pm 18:33 Cloudy 35 1.7 32 0 89 89 S 25 41 30.01 1016 10 16.0934 0.001 0.001
6:44 pm 18:44 Cloudy 35 1.7 32 0 89 89 S 20 31 30.01 1016 10 16.0934 0.001 0.001
6:52 pm 18:52 Cloudy 35 1.7 32 0 89 89 S 21 33 30.01 1016 10 16.0934 0.001 0.001
7:00 pm 19:00 Cloudy 35 1.7 32 0 89 89 SSW 20 31 30.02 1017 10 16.0934 0 0
7:03 pm 19:03 Cloudy 35 1.7 32 0 89 89 SSW 14 22 30.02 1017 10 16.0934 0 0
7:08 pm 19:08 Cloudy 35 1.7 33 0.6 93 93 SSW 16 26 30.01 1016 10 16.0934 0 0
7:21 pm 19:21 Cloudy 36 2.2 33 0.6 89 89 S 16 26 30 1016 10 16.0934 0 0
7:25 pm 19:25 Cloudy 36 2.2 33 0.6 89 89 S 17 28 30 1016 10 16.0934 0 0
7:29 pm 19:29 Cloudy 36 2.2 33 0.6 89 89 S 20 31 30 1016 10 16.0934 0 0
7:52 pm 19:52 Mostly Cloudy 36 2.2 33 0.6 89 89 S 18 30 29.98 1015 10 16.0934 0 0
8:52 pm 20:52 Cloudy 37 2.8 35 1.7 93 93 SSW 12 19 29.93 1014 10 16.0934 0 0
9:52 pm 21:52 Cloudy 39 3.9 36 2.2 89 89 SSW 14 22 29.88 1012 10 16.0934 0 0
10:52 pm 22:52 Cloudy 40 4.4 37 2.8 89 89 SSW 15 24 29.83 1010 10 16.0934 0 0
11:52 pm 23:52 Cloudy 42 5.6 38 3.3 85 85 SSW 22 35 29.79 1009 10 16.0934 0 0

Powered by AerisWeather